[[{"header":{"parameterUnit":"m.s-1","parameterCategory":1,"la1":30.2991,"la2":30.254,"lo1":-89.0895,"lo2":-89.0444,"dy":0.0017,"dx":0.0017,"nx":28,"ny":28,"refTime":"2026-02-01T09:00:00:Z","depth":0,"parameterNumber":2,"parameterNumberName":"U-component_of_WINDS"},"data":[0,0,0,0,0,0,0,0,0,0,0,0,0,0,0,0,0,0,0,0,0,0,0,0,0,0,0,0,0,0,0,0,0,0,0,0,0,0,0,0,0,0,0,0,0,0,0,0,0,0,0,0,0,0,0,0,0,0,4.1314,4.1316,0,4.1496,4.1498,4.15,4.1454,4.145,4.1446,4.1443,4.163,4.1638,4.1646,0,0,0,0,0,0,0,0,0,0,0,0,0,4.0925,4.0933,4.1314,4.1316,4.1318,4.1496,4.1498,4.1501,4.1454,4.145,4.1445,4.1441,4.1627,4.1637,4.1647,0,0,0,0,0,0,0,0,0,0,0,0,0,4.11,4.0935,4.1313,4.1316,4.1319,4.1495,4.1498,4.1501,4.1455,4.145,4.1444,4.1439,4.1624,4.1636,4.1649,4.1833,0,0,4.1687,4.1692,0,0,0,0,0,0,0,0,4.109,4.1114,4.1314,4.1317,4.1319,4.1446,4.143,4.1613,4.1456,4.1403,4.1443,4.1437,4.1573,4.159,4.1636,4.1842,4.185,4.1688,4.1695,4.1701,4.1704,0,0,0,0,0,0,0,4.1078,4.1106,4.1386,4.1317,4.132,4.1309,4.1327,4.1464,4.1516,4.1407,4.1405,4.1427,4.1574,4.1624,4.164,4.1853,4.1687,4.1699,4.1706,4.1711,4.2218,4.2223,0,0,0,0,0,0,4.1063,4.1096,4.138,4.1391,4.1189,4.132,4.1341,4.1411,4.1515,4.1525,4.1431,4.1424,4.1605,4.1625,4.1646,4.1867,4.1701,4.1712,4.172,4.2212,4.2219,4.2225,0,0,0,0,0,0,4.1055,4.1089,4.1373,4.1243,4.1278,4.1332,4.1411,4.1418,4.1467,4.1533,4.1542,4.1473,4.1602,4.1629,4.1787,4.1873,4.1718,4.1729,4.2205,4.2214,4.2222,4.2313,0,0,0,0,0,0,4.1044,4.1087,4.1157,4.1245,4.1285,4.151,4.1417,4.1425,4.1489,4.1481,4.1574,4.1584,4.1599,4.1768,4.1799,4.1888,4.1739,4.2197,4.2209,4.2219,4.2302,4.2324,4.2342,0,0,0,0,0,4.1031,4.1176,4.1161,4.1196,4.1375,4.1516,4.1539,4.1553,4.1496,4.1568,4.1609,4.1581,4.1859,4.1785,4.1819,4.1913,4.2192,4.2206,4.2219,4.2293,4.2319,4.2342,0,0,0,0,0,0,4.1098,4.1188,4.1172,4.1351,4.1426,4.1507,4.1598,4.1581,4.1674,4.1663,4.1677,4.1699,4.186,4.1902,4.1818,4.2096,4.2017,4.2038,4.2062,4.2088,4.2107,4.2093,4.1749,0,0,0,0,0,4.1134,4.1241,4.1313,4.1464,4.1502,4.1544,4.1606,4.161,4.1689,4.172,4.1774,4.1851,4.1955,4.2024,4.2124,4.2309,4.2327,4.239,4.241,4.2426,4.2443,4.2542,4.257,4.227,4.2269,4.2269,0,0,4.1209,4.1271,4.1338,4.1479,4.1537,4.1647,4.1571,4.1691,4.1772,4.1739,4.189,4.1932,4.202,4.2191,4.2269,4.2231,4.253,4.2443,4.2455,4.2464,4.2559,4.2587,4.2612,4.2279,4.2277,4.2276,0,0,4.1401,4.1459,4.159,4.165,4.174,4.1766,4.1798,4.1882,4.1908,4.2061,4.2038,4.2135,4.2315,4.2378,4.2433,4.2647,4.2624,4.268,4.2783,4.2879,4.2903,4.2924,4.2998,4.3025,4.2697,4.2697,4.2698,0,4.1482,4.1647,4.1659,4.1781,4.1843,4.1817,4.1949,4.2007,4.2125,4.2168,4.2125,4.2349,4.2406,4.2591,4.2643,4.269,4.2725,4.2668,4.2898,4.292,4.2939,4.301,4.3039,4.2703,4.2703,4.2702,4.2702,0,4.1742,4.1856,4.1951,4.2064,4.2137,4.2263,4.2294,4.2367,4.2365,4.2396,4.2551,4.2619,4.2731,4.2775,4.2776,4.296,4.2933,4.2894,4.2815,4.2974,4.3041,4.3068,4.2712,4.271,4.2708,4.2707,0,0,4.1981,4.2099,4.2134,4.2184,4.2281,4.2369,4.2494,4.2603,4.2664,4.2746,4.285,4.3003,4.2966,4.3029,4.3036,4.312,4.3283,4.307,4.3072,4.3106,4.3488,4.3516,4.3547,4.3269,4.3274,4.3279,4.348,0,4.218,4.2399,4.2413,4.2611,4.2716,4.2693,4.2801,4.2872,4.2904,4.2997,4.3033,4.314,4.3085,4.3122,4.3205,4.3246,4.336,4.3232,4.3364,4.3369,4.3341,4.3583,4.3613,4.38,4.3507,4.3511,4.3514,0,4.2442,4.253,4.2738,4.2818,4.2862,4.296,4.306,4.315,4.3229,4.3246,4.3316,4.3311,4.3438,4.3355,4.3529,4.3441,4.3497,4.3525,4.3533,4.3544,4.345,4.3599,4.386,4.3887,4.3556,4.3553,4.355,0,4.2593,4.2765,4.2911,4.2955,4.3052,4.3121,4.3165,4.3239,4.3303,4.3391,4.3432,4.3534,4.359,4.3668,4.369,4.3628,4.3863,4.3783,4.388,4.388,4.3929,4.3926,4.4201,4.3969,4.3968,4.3968,4.3967,0,4.2813,4.294,4.298,4.3069,4.3211,4.3227,4.3366,4.3406,4.3472,4.3568,4.3555,4.3646,4.367,4.3765,4.3783,4.3924,4.395,4.3966,4.3969,4.3966,4.3964,4.4001,4.3988,4.3975,4.3973,4.3972,4.3971,0,4.3006,4.3037,4.3194,4.3273,4.3296,4.3397,4.3464,4.355,4.358,4.3702,4.3732,4.3779,4.389,4.392,4.4053,4.4065,4.423,4.4222,4.4203,4.4202,4.4297,4.4287,4.4605,4.4646,4.4388,4.4391,4.4393,0,4.3143,4.324,4.3329,4.3392,4.3439,4.3541,4.3606,4.3625,4.3693,4.379,4.3864,4.3973,4.4061,4.4239,4.4285,4.4387,4.438,4.4484,4.4395,4.4388,4.4379,4.4372,4.438,4.45,4.4503,4.4505,4.4507,0,4.3383,4.3393,4.3487,4.3586,4.3664,4.3743,4.3819,4.3872,4.3901,4.3978,4.4091,4.4159,4.4295,4.4403,4.4505,4.4549,4.4533,4.4535,4.4563,4.456,4.4544,4.4551,4.4247,4.4527,4.4525,4.4524,4.4523,4.4522,4.3551,4.3635,4.371,4.3815,4.3874,4.3944,4.4028,4.4068,4.4162,4.4273,4.4279,4.4401,4.4476,4.4611,4.4662,4.4757,4.4726,4.4766,4.4776,4.4785,4.4792,4.453,4.4776,4.4776,4.4775,4.4775,4.4774,0,4.3788,4.3835,4.3931,4.4036,4.4118,4.4096,4.4178,4.4248,4.4355,4.4427,4.4513,4.4642,4.4746,4.48,4.4904,4.4969,4.4964,4.4996,4.499,4.5,4.4815,4.478,4.4998,4.4998,4.4998,4.4998,4.4998,4.4998,4.3921,4.4062,4.4081,4.425,4.4296,4.4415,4.4464,4.4528,4.4585,4.4729,4.4815,4.485,4.4914,4.5021,4.5116,4.5129,4.5166,4.5201,4.521,4.5036,4.5014,4.4992,4.4958,4.521,4.521,4.5387,4.5388,4.539]},{"header":{"parameterUnit":"m.s-1","parameterCategory":1,"la1":30.2991,"la2":30.254,"lo1":-89.0895,"lo2":-89.0444,"dy":0.0017,"dx":0.0017,"nx":28,"ny":28,"refTime":"2026-02-01T09:00:00:Z","depth":0,"parameterNumber":3,"parameterNumberName":"V-component_of_WINDS"},"data":[0,0,0,0,0,0,0,0,0,0,0,0,0,0,0,0,0,0,0,0,0,0,0,0,0,0,0,0,0,0,0,0,0,0,0,0,0,0,0,0,0,0,0,0,0,0,0,0,0,0,0,0,0,0,0,0,0,0,-1.2811,-1.2812,0,-1.2922,-1.2923,-1.2925,-1.2951,-1.295,-1.2949,-1.2948,-1.3065,-1.3069,-1.3072,0,0,0,0,0,0,0,0,0,0,0,0,0,-1.2623,-1.2627,-1.2811,-1.2812,-1.2813,-1.2922,-1.2924,-1.2925,-1.2951,-1.295,-1.2949,-1.2948,-1.3064,-1.3068,-1.3073,0,0,0,0,0,0,0,0,0,0,0,0,0,-1.2717,-1.2628,-1.281,-1.2839,-1.2843,-1.2922,-1.2924,-1.2925,-1.2951,-1.295,-1.2949,-1.2948,-1.3062,-1.3068,-1.3073,-1.3132,0,0,-1.3091,-1.3093,0,0,0,0,0,0,0,0,-1.2711,-1.2724,-1.2834,-1.2837,-1.2842,-1.2921,-1.29,-1.2995,-1.2951,-1.291,-1.2948,-1.2947,-1.3018,-1.3027,-1.3051,-1.3137,-1.3142,-1.3091,-1.3095,-1.3097,-1.3099,0,0,0,0,0,0,0,-1.2705,-1.2719,-1.2855,-1.2835,-1.284,-1.2848,-1.286,-1.2918,-1.2969,-1.2914,-1.2916,-1.2928,-1.302,-1.3045,-1.3054,-1.3144,-1.3091,-1.3096,-1.31,-1.3102,-1.3286,-1.3287,0,0,0,0,0,0,-1.2693,-1.2713,-1.2851,-1.2858,-1.2772,-1.2852,-1.2865,-1.2897,-1.2969,-1.2979,-1.2929,-1.2929,-1.3036,-1.3047,-1.3058,-1.3132,-1.3097,-1.3103,-1.3106,-1.3285,-1.3286,-1.3288,0,0,0,0,0,0,-1.2689,-1.2705,-1.2847,-1.2786,-1.2805,-1.2857,-1.2892,-1.29,-1.2925,-1.2981,-1.299,-1.2945,-1.3036,-1.305,-1.3114,-1.3137,-1.3105,-1.311,-1.3283,-1.3285,-1.3287,-1.328,0,0,0,0,0,0,-1.2683,-1.2703,-1.2725,-1.2787,-1.2808,-1.2899,-1.2893,-1.2903,-1.2934,-1.2935,-1.2998,-1.3008,-1.3036,-1.3105,-1.3119,-1.3144,-1.3115,-1.3281,-1.3284,-1.3286,-1.3279,-1.3282,-1.3285,0,0,0,0,0,-1.2677,-1.2719,-1.2726,-1.2743,-1.2836,-1.29,-1.2913,-1.2944,-1.2936,-1.2959,-1.2995,-1.3006,-1.3132,-1.3111,-1.3128,-1.3154,-1.328,-1.3283,-1.3286,-1.3277,-1.3281,-1.3285,0,0,0,0,0,0,-1.2659,-1.2727,-1.2736,-1.28,-1.2844,-1.2905,-1.2934,-1.2947,-1.2995,-1.2994,-1.3031,-1.3045,-1.3107,-1.3137,-1.3113,-1.3216,-1.3206,-1.3212,-1.3193,-1.3198,-1.32,-1.3192,-1.312,0,0,0,0,0,-1.2663,-1.2708,-1.2766,-1.2816,-1.2838,-1.2882,-1.2912,-1.2932,-1.298,-1.2999,-1.3039,-1.3086,-1.3137,-1.3169,-1.3218,-1.3284,-1.3298,-1.331,-1.3313,-1.3315,-1.3321,-1.3359,-1.3365,-1.3299,-1.3299,-1.3299,0,0,-1.2671,-1.2714,-1.274,-1.2814,-1.2851,-1.2898,-1.2898,-1.2948,-1.2984,-1.3006,-1.3069,-1.31,-1.3155,-1.322,-1.3251,-1.3247,-1.3342,-1.332,-1.3321,-1.3325,-1.3363,-1.3369,-1.3374,-1.3301,-1.33,-1.33,0,0,-1.2709,-1.2746,-1.2792,-1.2829,-1.2884,-1.2914,-1.2925,-1.2985,-1.3006,-1.3069,-1.3088,-1.3132,-1.3217,-1.3256,-1.3287,-1.3342,-1.3354,-1.3357,-1.3373,-1.3409,-1.3415,-1.3419,-1.344,-1.3446,-1.3362,-1.3362,-1.3362,0,-1.2712,-1.2782,-1.2814,-1.2864,-1.2896,-1.2919,-1.2967,-1.3002,-1.3071,-1.3093,-1.3088,-1.3197,-1.3236,-1.3311,-1.3324,-1.3348,-1.3363,-1.335,-1.3411,-1.3416,-1.3421,-1.3441,-1.3448,-1.3362,-1.3362,-1.3362,-1.3362,0,-1.2783,-1.2833,-1.2864,-1.2929,-1.2966,-1.3014,-1.3054,-1.3088,-1.3105,-1.3136,-1.3201,-1.3248,-1.3308,-1.3327,-1.3345,-1.3405,-1.3401,-1.3403,-1.3394,-1.3427,-1.3446,-1.3454,-1.3362,-1.3362,-1.3362,-1.3362,0,0,-1.2813,-1.2896,-1.2907,-1.2938,-1.3001,-1.3041,-1.3091,-1.3149,-1.3177,-1.3225,-1.3268,-1.3341,-1.3344,-1.3379,-1.3402,-1.3434,-1.3475,-1.3432,-1.3434,-1.3439,-1.3546,-1.3543,-1.3552,-1.3484,-1.3485,-1.3486,-1.3541,0,-1.2859,-1.2948,-1.2979,-1.3053,-1.3099,-1.3123,-1.3167,-1.3211,-1.3242,-1.3287,-1.3321,-1.3372,-1.3371,-1.3393,-1.3425,-1.3463,-1.3497,-1.346,-1.3526,-1.3528,-1.3511,-1.3562,-1.3559,-1.3608,-1.3549,-1.355,-1.3551,0,-1.2924,-1.2972,-1.305,-1.3109,-1.313,-1.3169,-1.3225,-1.3267,-1.3319,-1.3339,-1.3379,-1.34,-1.3455,-1.3443,-1.352,-1.3494,-1.3523,-1.3546,-1.3549,-1.3556,-1.3541,-1.357,-1.3625,-1.3632,-1.3563,-1.3562,-1.3561,0,-1.2938,-1.3022,-1.308,-1.3106,-1.3176,-1.3203,-1.3234,-1.3284,-1.3318,-1.3368,-1.339,-1.3446,-1.3476,-1.352,-1.3556,-1.3544,-1.363,-1.3621,-1.3649,-1.3648,-1.3666,-1.3664,-1.3726,-1.3685,-1.3685,-1.3684,-1.3684,0,-1.2986,-1.3033,-1.3087,-1.3123,-1.3177,-1.3213,-1.3266,-1.3299,-1.3344,-1.3388,-1.3412,-1.3452,-1.3497,-1.3544,-1.3573,-1.3633,-1.3647,-1.3665,-1.3672,-1.3663,-1.3661,-1.3682,-1.368,-1.3687,-1.3686,-1.3686,-1.3685,0,-1.301,-1.3048,-1.3113,-1.3174,-1.3191,-1.3228,-1.3282,-1.3318,-1.335,-1.3405,-1.342,-1.347,-1.3527,-1.3567,-1.364,-1.366,-1.3725,-1.3732,-1.3707,-1.371,-1.3736,-1.3733,-1.3814,-1.3827,-1.3777,-1.3777,-1.3778,0,-1.3038,-1.3075,-1.314,-1.317,-1.3201,-1.325,-1.3284,-1.3322,-1.3357,-1.3419,-1.3449,-1.3507,-1.3555,-1.3645,-1.3689,-1.3746,-1.3754,-1.3779,-1.3763,-1.3753,-1.3755,-1.3753,-1.3757,-1.3781,-1.3781,-1.3782,-1.3782,0,-1.3083,-1.3101,-1.3148,-1.3203,-1.3243,-1.3289,-1.3334,-1.3358,-1.3404,-1.3443,-1.3501,-1.3538,-1.3613,-1.3671,-1.3732,-1.3766,-1.3782,-1.3787,-1.3796,-1.3787,-1.3771,-1.3781,-1.3713,-1.3784,-1.3784,-1.3784,-1.3784,-1.3784,-1.3111,-1.3145,-1.3196,-1.3249,-1.3288,-1.333,-1.3367,-1.3404,-1.3453,-1.3516,-1.3536,-1.3596,-1.3649,-1.3733,-1.3767,-1.3816,-1.3815,-1.3829,-1.3832,-1.3835,-1.3835,-1.3764,-1.3827,-1.3827,-1.3827,-1.3827,-1.3827,0,-1.3158,-1.3192,-1.3241,-1.3304,-1.3346,-1.3357,-1.3408,-1.3443,-1.3495,-1.3543,-1.359,-1.3658,-1.3715,-1.3764,-1.3823,-1.3853,-1.3862,-1.3867,-1.3865,-1.3873,-1.3832,-1.3818,-1.3859,-1.3859,-1.3859,-1.3859,-1.3859,-1.3859,-1.3187,-1.3246,-1.327,-1.3348,-1.3383,-1.3441,-1.347,-1.351,-1.3548,-1.3622,-1.3669,-1.37,-1.3749,-1.3813,-1.3866,-1.3879,-1.39,-1.3904,-1.3918,-1.3879,-1.3876,-1.3872,-1.3859,-1.3908,-1.3908,-1.3955,-1.3956,-1.3956]}]]